Volver al catálogo

STARLINK-31019

ActivoComunicacionesVLEO
NORAD 58540·PAYLOAD·🇺🇸 United States

Lanzado Dec 8, 2023 desde Vandenberg Space Force Base

Loading…

Próximos Pases (próximas 24 horas)

TLE

ActualizadoSource: CelesTrak SupGP

Época: Sep 14, 2026, 21:01 UTC

1 58540C 23192K   26257.87618056  .00051711  00000+0  15282-2 0  2573
2 58540  53.1583 260.1413 0001250  91.7008 314.6619 15.34356629    14

Sigue STARLINK-31019 en tiempo real con AllMySat

Download on the App Store